Home   Weather   Fairfield   Past weeks
Flag for USA

Past Weather in Fairfield, Tennessee, USA — Yesterday and Last 2 Weeks

Now
55 °F

Sunny.


Feels Like: 53 °F
Forecast: 56 / 41 °F
Wind: 9 mph from North

Location: Deason

Current Time: Dec 7, 2019 at 1:43:29 pm

Latest Report: Dec 7, 2019 at 12:55 pm


Visibility: 10 mi

Pressure: 30.27 "Hg

Humidity: 67%

Dew Point: 45 °F

Location of FairfieldLocation

Past Weather in Fairfield — Graph

°F

Fairfield Temperature Yesterday

Maximum temperature yesterday: 55 °F (at 10:35 am)
Minimum temperature yesterday: 43 °F (at 11:15 pm)
Average temperature yesterday: 51 °F

High & Low Weather Summary for the Past Weeks

 TemperatureHumidityPressure
High68 °F (Nov 30, 11:15 am)100% (Nov 22, 12:35 pm)30.45 "Hg (Nov 22, 12:35 pm)
Low27 °F (Dec 4, 5:35 am)29% (Nov 27, 2:15 pm)29.55 "Hg (Nov 30, 10:55 pm)
Average47 °F74%30.00 "Hg
* Reported Nov 22 12:35 pm — Dec 7 12:35 pm, Fairfield. Weather by CustomWeather, © 2019

Note: Actual official high and low records may vary slightly from our data, if they occured in-between our weather recording intervals... More about our weather records

Fairfield Weather History for the Previous 24 Hours

Scroll right to see more
 ConditionsComfort  
Time TempWeatherWind HumidityBarometerVisibility
12:35 pm
Sat, Dec 7
55 °FSunny.6 mph67%30.28 "Hg10 mi
12:15 pm55 °FSunny.6 mph67%30.28 "Hg10 mi
11:55 am55 °FSunny.6 mph67%30.28 "Hg10 mi
11:35 am54 °FSunny.7 mph72%30.29 "Hg10 mi
11:15 am54 °FSunny.5 mph72%30.30 "Hg10 mi
10:55 am52 °FSunny.8 mph77%30.30 "Hg10 mi
10:35 am50 °FSunny.8 mph82%30.31 "Hg10 mi
10:15 am50 °FPassing clouds.8 mph82%30.31 "Hg10 mi
9:55 am50 °FPassing clouds.9 mph76%30.31 "Hg10 mi
9:15 am48 °FSunny.7 mph82%30.30 "Hg10 mi
8:55 am48 °FSunny.7 mph82%30.30 "Hg10 mi
8:35 am46 °FSunny.7 mph87%30.29 "Hg9 mi
8:15 am45 °FFog.10 mph93%30.29 "Hg6 mi
7:55 am43 °FSunny.3 mph93%30.29 "Hg9 mi
7:35 am39 °FSunny.No wind93%30.29 "Hg9 mi
7:15 am37 °FFog.No wind93%30.29 "Hg5 mi
6:55 am37 °FFog.No wind93%30.28 "Hg5 mi
6:35 am39 °FClear.No wind93%30.28 "Hg10 mi
5:55 am39 °FClear.3 mph93%30.27 "Hg10 mi
5:35 am41 °FClear.5 mph93%30.26 "Hg10 mi
5:15 am41 °FPassing clouds.3 mph93%30.26 "Hg10 mi
4:55 am43 °FPassing clouds.5 mph93%30.26 "Hg10 mi
4:35 am43 °FPassing clouds.6 mph87%30.26 "Hg10 mi
4:15 am46 °FOvercast.8 mph82%30.26 "Hg10 mi
3:55 am46 °FOvercast.7 mph82%30.25 "Hg10 mi
3:35 am46 °FOvercast.3 mph82%30.25 "Hg10 mi
2:55 am46 °FOvercast.5 mph82%30.25 "Hg10 mi
2:35 am46 °FOvercast.5 mph82%30.24 "Hg10 mi
1:55 am46 °FOvercast.7 mph82%30.24 "Hg10 mi
1:35 am46 °FOvercast.6 mph82%30.24 "Hg10 mi
12:55 am46 °FOvercast.6 mph87%30.23 "Hg10 mi
12:35 am46 °FOvercast.6 mph82%30.23 "Hg10 mi
12:15 am46 °FOvercast.8 mph82%30.23 "Hg10 mi
11:55 pm
Fri, Dec 6
45 °FOvercast.6 mph87%30.23 "Hg10 mi
11:35 pm45 °FOvercast.5 mph87%30.23 "Hg10 mi
11:15 pm43 °FOvercast.No wind87%30.23 "Hg10 mi
10:55 pm45 °FOvercast.No wind87%30.22 "Hg10 mi
10:35 pm45 °FOvercast.5 mph87%30.22 "Hg10 mi
10:15 pm46 °FPassing clouds.No wind82%30.22 "Hg10 mi
9:55 pm45 °FClear.No wind81%30.22 "Hg10 mi
9:35 pm45 °FClear.7 mph87%30.22 "Hg10 mi
9:15 pm46 °FClear.8 mph82%30.22 "Hg10 mi
8:55 pm46 °FPassing clouds.9 mph82%30.22 "Hg10 mi
8:35 pm46 °FPassing clouds.7 mph82%30.21 "Hg10 mi
8:15 pm46 °FPassing clouds.7 mph82%30.21 "Hg10 mi
7:55 pm48 °FPassing clouds.6 mph76%30.20 "Hg10 mi
7:35 pm48 °FPartly cloudy.7 mph82%30.20 "Hg10 mi
7:15 pm50 °FOvercast.6 mph76%30.20 "Hg10 mi
6:55 pm50 °FOvercast.3 mph76%30.19 "Hg10 mi
6:35 pm52 °FMostly cloudy.6 mph72%30.18 "Hg10 mi
5:55 pm52 °FMostly cloudy.5 mph67%30.17 "Hg10 mi
5:35 pm52 °FMostly cloudy.No wind72%30.17 "Hg10 mi
5:15 pm54 °FMostly cloudy.No wind63%30.16 "Hg10 mi
4:55 pm54 °FMostly cloudy.3 mph67%30.16 "Hg10 mi
4:35 pm54 °FOvercast.5 mph67%30.15 "Hg10 mi
4:15 pm54 °FOvercast.3 mph63%30.14 "Hg10 mi
3:55 pm55 °FOvercast.3 mph59%30.14 "Hg10 mi
3:35 pm55 °FOvercast.No wind63%30.13 "Hg10 mi
2:55 pm55 °FMostly cloudy.No wind59%30.12 "Hg10 mi
2:20 pm55 °FMore clouds than sun.No wind59%30.11 "Hg10 mi
2:15 pm55 °FMore clouds than sun.5 mph59%30.11 "Hg10 mi
1:55 pm55 °FMostly cloudy.5 mph59%30.12 "Hg10 mi
1:35 pm55 °FMore clouds than sun.No wind59%30.11 "Hg10 mi
1:15 pm55 °FMore clouds than sun.No wind59%30.11 "Hg8 mi
Weather by CustomWeather, © 2019

See weather overview

Advertising